Home > Weather > Dubrovnik > Past weeks

Flag for Croatia Past Weather in Dubrovnik, Croatia — Yesterday and Last 2 Weeks

Now
81 °F

Clear.


Feels Like: 82 °F
Forecast: 71 / 81 °F
Wind: 7 mph from Northeast

Location: Dubrovnik / Cilipi

Current Time: Jun 26, 2016 at 4:45:36 AM

Latest Report: Jun 26, 2016 at 4:00 AM


Visibility: 10 mi

Pressure: 29.83 "Hg

Humidity: 58%

Dew Point: 64 °F

Location of DubrovnikLocation

Past Weather in Dubrovnik — Graph

°F

Dubrovnik Temperature Yesterday

Maximum temperature yesterday: 91 °F (at 4:00 PM)
Minimum temperature yesterday: 77 °F (at 5:30 AM)
Average temperature yesterday: 85 °F

High & Low Weather Summary for the Past Weeks

 TemperatureHumidityPressure
High91 °F (Jun 25, 4:00 PM)100% (Jun 11, 5:30 AM)30.12 "Hg (Jun 11, 5:30 AM)
Low59 °F (Jun 14, 4:30 AM)35% (Jun 16, 7:30 PM)29.59 "Hg (Jun 13, 5:30 PM)
Average75 °F70%29.92 "Hg
* Reported Jun 11 3:00 AM — Jun 26 3:30 AM, Dubrovnik, Weather by CustomWeather, © 2016

Note: Actual official high and low records may vary slightly from our data, if they occured in-between our weather recording intervals... More about our weather records

Advertising

Dubrovnik Weather History for the Previous 24 Hours

Scroll right to see more
 ConditionsComfort  
Time TempWeatherWind HumidityBarometerVisibility
3:30 AM
Sun, Jun 26
82 °FPassing clouds.9 mph55%29.83 "HgN/A
3:00 AM82 °FPassing clouds.9 mph55%29.83 "HgN/A
2:30 AM84 °FPassing clouds.10 mph55%29.83 "HgN/A
2:00 AM82 °FPassing clouds.7 mph55%29.83 "HgN/A
1:30 AM82 °FPassing clouds.8 mph58%29.83 "HgN/A
1:00 AM84 °FPassing clouds.15 mph55%29.83 "HgN/A
12:30 AM82 °FPassing clouds.17 mph58%29.83 "HgN/A
12:00 AM84 °FPassing clouds.16 mph55%29.83 "HgN/A
11:30 PM
Sat, Jun 25
84 °FPassing clouds.13 mph55%29.86 "HgN/A
11:00 PM84 °FPassing clouds.6 mph55%29.83 "HgN/A
10:30 PM81 °FPassing clouds.3 mph58%29.86 "HgN/A
10:00 PM79 °FPassing clouds.9 mph61%29.86 "HgN/A
9:30 PM81 °FClear.8 mph58%29.86 "Hg10 mi
9:00 PM82 °FPassing clouds.9 mph55%29.83 "HgN/A
8:30 PM82 °FPassing clouds.9 mph51%29.83 "HgN/A
8:00 PM82 °FPassing clouds.8 mph55%29.83 "HgN/A
7:30 PM84 °FPassing clouds.8 mph51%29.83 "HgN/A
7:00 PM86 °FPassing clouds.6 mph52%29.83 "HgN/A
6:30 PM86 °FPassing clouds.8 mph49%29.83 "HgN/A
6:00 PM86 °FPassing clouds.7 mph55%29.83 "HgN/A
5:30 PM88 °FPassing clouds.12 mph52%29.83 "HgN/A
5:00 PM91 °FPassing clouds.9 mph44%29.83 "HgN/A
4:30 PM91 °FPassing clouds.10 mph41%29.83 "HgN/A
4:00 PM91 °FPassing clouds.10 mph41%29.83 "HgN/A
3:30 PM90 °FPassing clouds.13 mph46%29.86 "HgN/A
3:00 PM90 °FPassing clouds.13 mph49%29.86 "HgN/A
2:30 PM84 °FPassing clouds.8 mph51%29.86 "HgN/A
2:00 PM86 °FThunderstorms. Passing clouds.5 mph55%29.89 "HgN/A
1:30 PM86 °FPassing clouds.12 mph46%29.86 "HgN/A
1:00 PM90 °FPassing clouds.12 mph43%29.86 "HgN/A
12:30 PM90 °FPassing clouds.10 mph43%29.89 "HgN/A
12:00 PM90 °FPassing clouds.8 mph49%29.89 "HgN/A
11:30 AM90 °FPassing clouds.7 mph46%29.89 "HgN/A
11:00 AM90 °FPassing clouds.7 mph49%29.89 "HgN/A
10:30 AM90 °FPassing clouds.7 mph43%29.89 "HgN/A
10:00 AM88 °FPassing clouds.5 mph46%29.89 "HgN/A
9:30 AM88 °FPassing clouds.3 mph46%29.89 "HgN/A
9:00 AM90 °FPassing clouds.2 mph43%29.89 "HgN/A
8:30 AM88 °FPassing clouds.3 mph52%29.89 "HgN/A
8:00 AM88 °FSunny.2 mph46%29.86 "Hg10 mi
7:30 AM84 °FPassing clouds.6 mph45%29.86 "HgN/A
7:00 AM84 °FPassing clouds.8 mph45%29.86 "HgN/A
6:30 AM82 °FSunny.5 mph48%29.86 "Hg10 mi
6:00 AM79 °FPassing clouds.3 mph54%29.86 "HgN/A
5:30 AM77 °FClear.6 mph61%29.86 "Hg10 mi
5:00 AM79 °FPassing clouds.7 mph54%29.86 "HgN/A
4:30 AM82 °FPassing clouds.7 mph48%29.86 "HgN/A
4:00 AM81 °FPassing clouds.6 mph51%29.86 "HgN/A
Weather by CustomWeather, © 2016

See weather overviewHow to use our weather pages